When you browse on this site, cookies collect data to enhance your experience and personalize the content and advertising you see.
Visit our Privacy Policy to learn more. By continuing to use the site, you agree to this use of cookies and data.
  • In Hungary
  • List of Countries
  • For 7 days
  • Water Temperature
  • Satellite Maps
  • Weather Map
  • News
  • Weather Widgets
  • user-avatar
    Login

    Hourly Weather Karamsad

    Today, 20 March, Wednesday

    Time Temperature Precipitation Wind Pressure Humidity
    00:00 +28°C° 0 mm 2 mps 753 mmHg 25%
    01:00 +27°C° 0 mm 2 mps 753 mmHg 26%
    02:00 +27°C° 0 mm 2 mps 753 mmHg 27%
    03:00 +26°C° 0 mm 2 mps 753 mmHg 30%
    04:00 +25°C° 0 mm 1 mps 753 mmHg 33%
    05:00 +24°C° 0 mm 1 mps 753 mmHg 39%
    06:00 +26°C° 0 mm 1 mps 753 mmHg 38%
    07:00 +27°C° 0 mm 1 mps 754 mmHg 38%
    08:00 +28°C° 0 mm 2 mps 754 mmHg 38%
    09:00 +30°C° 0 mm 2 mps 754 mmHg 34%
    10:00 +32°C° 0 mm 2 mps 754 mmHg 30%
    11:00 +35°C° 0 mm 2 mps 755 mmHg 27%
    12:00 +36°C° 0 mm 3 mps 754 mmHg 24%
    13:00 +38°C° 0 mm 4 mps 754 mmHg 20%
    14:00 +40°C° 0 mm 4 mps 753 mmHg 17%
    15:00 +40°C° 0 mm 4 mps 753 mmHg 17%
    16:00 +38°C° 0 mm 4 mps 753 mmHg 17%
    17:00 +38°C° 0 mm 4 mps 752 mmHg 17%
    18:00 +36°C° 0 mm 4 mps 753 mmHg 21%
    19:00 +33°C° 0 mm 3 mps 753 mmHg 24%
    20:00 +30°C° 0 mm 2 mps 754 mmHg 28%
    21:00 +29°C° 0 mm 2 mps 754 mmHg 32%
    22:00 +28°C° 0 mm 2 mps 754 mmHg 36%
    23:00 +27°C° 0 mm 2 mps 754 mmHg 41%

    Tomorrow, 21 March, Thursday

    Time Temperature Precipitation Wind Pressure Humidity
    00:00 +26°C° 0 mm 2 mps 754 mmHg 42%
    01:00 +26°C° 0 mm 2 mps 754 mmHg 43%
    02:00 +25°C° 0 mm 2 mps 754 mmHg 45%
    03:00 +24°C° 0 mm 1 mps 754 mmHg 46%
    04:00 +24°C° 0 mm 1 mps 754 mmHg 48%
    05:00 +23°C° 0 mm 1 mps 754 mmHg 49%
    06:00 +24°C° 0 mm 1 mps 755 mmHg 45%
    07:00 +25°C° 0 mm 2 mps 755 mmHg 42%
    08:00 +26°C° 0 mm 2 mps 756 mmHg 38%
    09:00 +29°C° 0 mm 2 mps 756 mmHg 34%
    10:00 +31°C° 0 mm 2 mps 756 mmHg 29%
    11:00 +34°C° 0 mm 2 mps 756 mmHg 25%
    12:00 +35°C° 0 mm 2 mps 756 mmHg 21%
    13:00 +36°C° 0 mm 3 mps 755 mmHg 17%
    14:00 +38°C° 0 mm 3 mps 754 mmHg 13%
    15:00 +38°C° 0 mm 3 mps 754 mmHg 13%
    16:00 +37°C° 0 mm 3 mps 753 mmHg 13%
    17:00 +37°C° 0 mm 4 mps 753 mmHg 13%
    18:00 +35°C° 0 mm 3 mps 754 mmHg 15%
    19:00 +33°C° 0 mm 3 mps 754 mmHg 18%
    20:00 +30°C° 0 mm 2 mps 755 mmHg 21%
    21:00 +29°C° 0 mm 2 mps 755 mmHg 22%
    22:00 +28°C° 0 mm 2 mps 755 mmHg 24%
    23:00 +27°C° 0 mm 2 mps 756 mmHg 25%

    Day after tomorrow, 22 March, Friday

    Time Temperature Precipitation Wind Pressure Humidity
    00:00 +27°C° 0 mm 1 mps 755 mmHg 26%
    01:00 +26°C° 0 mm 1 mps 755 mmHg 28%
    02:00 +25°C° 0 mm 1 mps 755 mmHg 30%
    03:00 +25°C° 0 mm 1 mps 755 mmHg 30%
    04:00 +24°C° 0 mm 1 mps 755 mmHg 31%
    05:00 +24°C° 0 mm 2 mps 755 mmHg 31%
    06:00 +25°C° 0 mm 2 mps 756 mmHg 31%
    07:00 +26°C° 0 mm 2 mps 757 mmHg 31%
    08:00 +28°C° 0 mm 3 mps 757 mmHg 31%
    09:00 +30°C° 0 mm 3 mps 757 mmHg 25%
    10:00 +34°C° 0 mm 4 mps 757 mmHg 19%
    11:00 +37°C° 0 mm 4 mps 757 mmHg 13%
    12:00 +38°C° 0 mm 4 mps 757 mmHg 11%
    13:00 +39°C° 0 mm 3 mps 756 mmHg 10%
    14:00 +40°C° 0 mm 3 mps 755 mmHg 8%
    15:00 +39°C° 0 mm 2 mps 754 mmHg 8%
    16:00 +39°C° 0 mm 2 mps 754 mmHg 8%
    17:00 +39°C° 0 mm 2 mps 753 mmHg 8%
    18:00 +37°C° 0 mm 2 mps 754 mmHg 9%
    19:00 +34°C° 0 mm 2 mps 755 mmHg 11%
    20:00 +31°C° 0 mm 1 mps 755 mmHg 12%
    21:00 +30°C° 0 mm 1 mps 755 mmHg 13%
    22:00 +29°C° 0 mm 1 mps 756 mmHg 14%
    23:00 +28°C° 0 mm 1 mps 756 mmHg 15%

    23 March, Saturday

    Time Temperature Precipitation Wind Pressure Humidity
    00:00 +28°C° 0 mm 2 mps 755 mmHg 17%
    01:00 +27°C° 0 mm 2 mps 755 mmHg 18%
    02:00 +26°C° 0 mm 3 mps 755 mmHg 19%
    03:00 +26°C° 0 mm 3 mps 755 mmHg 19%
    04:00 +26°C° 0 mm 3 mps 755 mmHg 18%
    05:00 +26°C° 0 mm 3 mps 755 mmHg 18%
    06:00 +27°C° 0 mm 4 mps 756 mmHg 16%
    07:00 +29°C° 0 mm 4 mps 756 mmHg 15%
    08:00 +30°C° 0 mm 5 mps 757 mmHg 14%
    09:00 +34°C° 0 mm 4 mps 757 mmHg 12%
    10:00 +37°C° 0 mm 4 mps 757 mmHg 11%
    11:00 +41°C° 0 mm 4 mps 757 mmHg 9%
    12:00 +40°C° 0 mm 3 mps 756 mmHg 8%
    13:00 +41°C° 0 mm 2 mps 755 mmHg 7%
    14:00 +42°C° 0 mm 1 mps 754 mmHg 7%
    15:00 +42°C° 0 mm 1 mps 754 mmHg 7%
    16:00 +41°C° 0 mm 2 mps 753 mmHg 7%
    17:00 +41°C° 0 mm 2 mps 753 mmHg 7%
    18:00 +39°C° 0 mm 2 mps 753 mmHg 8%
    19:00 +36°C° 0 mm 2 mps 754 mmHg 9%
    20:00 +32°C° 0 mm 2 mps 754 mmHg 10%
    21:00 +31°C° 0 mm 2 mps 755 mmHg 11%
    22:00 +31°C° 0 mm 2 mps 755 mmHg 12%
    23:00 +30°C° 0 mm 3 mps 755 mmHg 12%

    24 March, Sunday

    Time Temperature Precipitation Wind Pressure Humidity
    00:00 +29°C° 0 mm 3 mps 755 mmHg 14%
    01:00 +28°C° 0 mm 3 mps 754 mmHg 15%
    02:00 +28°C° 0 mm 3 mps 754 mmHg 16%
    03:00 +27°C° 0 mm 2 mps 754 mmHg 17%
    04:00 +27°C° 0 mm 2 mps 754 mmHg 17%
    05:00 +26°C° 0 mm 2 mps 754 mmHg 17%
    06:00 +28°C° 0 mm 2 mps 754 mmHg 16%
    07:00 +29°C° 0 mm 2 mps 755 mmHg 15%
    08:00 +31°C° 0 mm 2 mps 756 mmHg 14%
    09:00 +35°C° 0 mm 2 mps 755 mmHg 12%
    10:00 +37°C° 0 mm 3 mps 755 mmHg 10%
    11:00 +40°C° 0 mm 3 mps 755 mmHg 8%
    12:00 +41°C° 0 mm 2 mps 754 mmHg 8%
    13:00 +42°C° 0 mm 1 mps 754 mmHg 7%
    14:00 +43°C° 0 mm 1 mps 753 mmHg 6%
    15:00 +43°C° 0 mm 1 mps 752 mmHg 7%
    16:00 +43°C° 0 mm 2 mps 752 mmHg 7%
    17:00 +42°C° 0 mm 2 mps 752 mmHg 7%
    18:00 +40°C° 0 mm 2 mps 752 mmHg 8%
    19:00 +37°C° 0 mm 2 mps 753 mmHg 10%
    20:00 +35°C° 0 mm 3 mps 753 mmHg 11%
    21:00 +34°C° 0 mm 3 mps 753 mmHg 12%
    22:00 +33°C° 0 mm 3 mps 754 mmHg 13%
    23:00 +31°C° 0 mm 3 mps 754 mmHg 14%

    25 March, Monday

    Time Temperature Precipitation Wind Pressure Humidity
    00:00 +30°C° 0 mm 3 mps 753 mmHg 16%
    01:00 +29°C° 0 mm 3 mps 753 mmHg 17%
    02:00 +29°C° 0 mm 3 mps 753 mmHg 18%
    03:00 +28°C° 0 mm 3 mps 753 mmHg 18%
    04:00 +28°C° 0 mm 2 mps 753 mmHg 19%
    05:00 +27°C° 0 mm 2 mps 753 mmHg 19%
    06:00 +29°C° 0 mm 2 mps 754 mmHg 18%
    07:00 +31°C° 0 mm 3 mps 755 mmHg 17%
    08:00 +33°C° 0 mm 3 mps 755 mmHg 16%
    09:00 +36°C° 0 mm 3 mps 755 mmHg 13%
    10:00 +39°C° 0 mm 3 mps 755 mmHg 11%
    11:00 +43°C° 0 mm 3 mps 755 mmHg 9%
    12:00 +44°C° 0 mm 3 mps 755 mmHg 8%
    13:00 +45°C° 0 mm 2 mps 754 mmHg 8%
    14:00 +45°C° 0 mm 2 mps 753 mmHg 7%
    15:00 +45°C° 0 mm 2 mps 753 mmHg 7%
    16:00 +45°C° 0 mm 2 mps 753 mmHg 7%
    17:00 +45°C° 0 mm 2 mps 753 mmHg 7%
    18:00 +42°C° 0 mm 2 mps 753 mmHg 9%
    19:00 +39°C° 0 mm 2 mps 754 mmHg 11%
    20:00 +36°C° 0 mm 2 mps 754 mmHg 13%
    21:00 +35°C° 0 mm 3 mps 755 mmHg 14%
    22:00 +34°C° 0 mm 3 mps 755 mmHg 16%
    23:00 +33°C° 0 mm 3 mps 755 mmHg 18%
    Show more